Regional Weather Roundup
Issued by NWS

Home | Current Version | Previous Version | Graphics & Text | Print | Product List | Glossary On
Versions: 1 2 3 4 5 6 7 8 9 10 11 12 13 14 15 16 17 18 19 20 21 22 23 24 25 26 27 28 29 30 31 32 33 34 35 36 37 38 39 40 41 42 43 44 45 46 47 48 49 50
000
ASUS43 KLOT 242121
RWRIL

ILLINOIS REGIONAL WEATHER ROUNDUP
NATIONAL WEATHER SERVICE CHICAGO/ROMEOVILLE IL
400 PM CDT FRI APR 24 2015

NOTE: "FAIR" INDICATES FEW OR NO CLOUDS BELOW 12,000 FEET WITH NO
SIGNIFICANT WEATHER AND/OR OBSTRUCTIONS TO VISIBILITY.

* THESE STATIONS ARE NOT UNDER NWS QUALITY CONTROL. THEY ALSO MAY NOT
  REPORT WEATHER SUCH AS PRECIPITATION OR FOG.

ILZ001-002-007-009-015-016-024-242200-
NORTHWEST ILLINOIS

CITY           SKY/WX    TMP DP  RH WIND       PRES   REMARKS
MOLINE         CLOUDY    60  27  28 E17       29.81F
STERLING*      CLOUDY    61  25  25 SE5       29.88R
SAVANNA*       LGT RAIN  54  37  52 E8        29.88S
$$

ILZ003-004-008-010-011-017-018-242200-
NORTH CENTRAL ILLINOIS

CITY           SKY/WX    TMP DP  RH WIND       PRES   REMARKS
ROCKFORD       CLOUDY    53  27  36 NE15      29.94S
FREEPORT*      CLOUDY    53  30  40 E13       29.92F
ROCHELLE*      CLOUDY    60  22  23 E12       29.89F
DE KALB*       PTSUNNY   58  22  25 E13G18    29.90F
PERU*          CLOUDY    64  24  22 S17       29.88F
$$

ILZ005-006-012>014-019>023-242200-
NORTHEAST ILLINOIS

CITY           SKY/WX    TMP DP  RH WIND       PRES   REMARKS
CHICAGO-OHARE  CLOUDY    53  19  26 NE12      29.94F
CHICAGO-MIDWAY CLOUDY    54  21  27 NE12      29.94F
AURORA         CLOUDY    62  24  23 E14       29.90F
LANSING*       CLOUDY    55  20  25 NE7       29.94F
JOLIET*        CLOUDY    64  26  23 SE9       29.91F
WAUKEGAN       LGT RAIN  43  32  65 NE3       29.98F
DUPAGE AIRPORT CLOUDY    60  22  23 NE14      29.91F
KANKAKEE*      CLOUDY    62  28  27 SE8       29.93F
WHEELING       LGT RAIN  46  33  60 NE5       29.97F
MORRIS*        CLOUDY    64  22  20 SE14      29.89F
ROMEOVILLE*    CLOUDY    62  20  20 E6        29.91F
NORTHERLY ISL    N/A     47  34  60 E8          N/A
$$

LMZ740>746-242200-
SOUTHERN LAKE MICHIGAN

STATION/POSITION SKY/WX   TEMP    WIND        PRES    VSBY  WAVE
                          AIR SEA DIR/SP/G                  HT/PER
                          (F)     (DEG/KT/KT) (MB)    (MI)  (FT/S)
HARRISON CRIB              42      60/ 16/ 18   N/A
BURNHAM HARBOR             47      60/  9       N/A
CALUMET HARBOR             46      50/ 10/ 12   N/A
MICHIGAN CITY              47      30/ 13/ 15   N/A
MICHIGAN CITY 6N           44 44   80/ 10/ 12   N/A           1/ 2
$$

ILZ025>027-034>036-040-047-049-050-058-095>099-242200-
WEST-CENTRAL ILLINOIS

CITY           SKY/WX    TMP DP  RH WIND       PRES   REMARKS
QUINCY         CLOUDY    66  36  32 S20G26    29.77F
GALESBURG*     CLOUDY    61  32  33 SE17G24   29.82S
MACOMB*        CLOUDY    63  31  31 SE21      29.84S
JACKSONVILLE*  CLOUDY    64  34  33 S17G25    29.85F
PITTSFIELD*    CLOUDY    65  36  34 S15G23    29.82F
$$

ILZ028>032-037-038-041>044-048-051>054-059>061-242200-
CENTRAL ILLINOIS

CITY           SKY/WX    TMP DP  RH WIND       PRES   REMARKS
PONTIAC        CLOUDY    65  24  21 SE15      29.91F
BLOOMINGTON    CLOUDY    61  30  31 S17G24    29.90F
DECATUR        CLOUDY    61  31  32 S12       29.91F
PEORIA         CLOUDY    63  30  28 SE20      29.86F
LACON*         CLOUDY    64  26  24 SE17      29.86F
LINCOLN*       CLOUDY    62  30  29 S16G22    29.87F
SPRINGFIELD    CLOUDY    62  33  33 S21       29.88F
TAYLORVILLE    CLOUDY    61  32  33 SE16G23   29.89F
$$

ILZ033-039-045-046-055>057-062-063-242200-
EAST-CENTRAL ILLINOIS

CITY           SKY/WX    TMP DP  RH WIND       PRES   REMARKS
CHAMPAIGN      CLOUDY    62  25  24 S14       29.93F
DANVILLE*      CLOUDY    59  28  30 SE9       29.92F
RANTOUL*       CLOUDY    63  26  24 S16       29.94S
MATTOON        CLOUDY    59  29  31 S12       29.92F
PARIS*         CLOUDY    61  31  32 SE12      29.95S
$$

ILZ079-100>102-242200-
SOUTHWEST ILLINOIS

CITY           SKY/WX    TMP DP  RH WIND       PRES   REMARKS
ALTON          CLOUDY    63  27  25 MISG      29.86F
BELLEVILLE     CLOUDY    62  37  38 SE6G17    29.87F
CAHOKIA*       CLOUDY    64  37  36 SE17G25   29.86F
SPARTA*        CLOUDY    62  36  38 S14G22    29.92F
$$

ILZ064>066-069>071-074>076-080>082-084>086-088>090-092>094-242200-
SOUTH-CENTRAL ILLINOIS

CITY           SKY/WX    TMP DP  RH WIND       PRES   REMARKS
CARBONDALE     CLOUDY    60  35  39 S14       29.95S
CAIRO*         CLOUDY    57  44  61 S7        29.98R
EFFINGHAM*     CLOUDY    60  25  25 SE14      29.95S
MARION         CLOUDY    63  36  36 S12       29.97R
MT. VERNON     CLOUDY    64  34  32 S16G22    29.94F
CENTRALIA*     CLOUDY    65  32  29 S16       29.92S
SALEM*         CLOUDY    64  28  25 S9        29.93S
METROPOLIS*    CLOUDY    61  39  44 S5        29.96S
$$

ILZ067-068-072-073-078-083-087-091-242200-
SOUTHEAST ILLINOIS

CITY           SKY/WX    TMP DP  RH WIND       PRES   REMARKS
LAWRENCEVILLE  CLOUDY    62  31  31 SE10      29.95F
FLORA*         CLOUDY    60  31  33 S10G17    29.95S
FAIRFIELD*     CLOUDY    63  32  31 S12       29.94S
HARRISBURG*    CLOUDY    63  32  31 S10       29.97R
ROBINSON*      CLOUDY    62  28  27 SE10      29.95F
CARMI*         CLOUDY    63  26  24 SE13      29.95S
$$

ABBREVIATIONS USED IN REMARKS
   TC - TEMPERATURE IN CELSIUS
  WCI - WIND CHILL INDEX
   HX - HEAT INDEX
  VSB - VISIBILITY
$$




USA.gov is the U.S. government's official web portal to all federal, state and local government web resources and services.